TimeCST,TemperatureF,Dew PointF,Humidity,Sea Level PressureIn,VisibilityMPH,Wind Direction,Wind SpeedMPH,Gust SpeedMPH,PrecipitationIn,Events,Conditions,WindDirDegrees,DateUTC
12:53 AM,16.0,8.1,71,30.44,10.0,North,6.9,-,N/A,,Clear,350,2013-11-27 06:53:00
1:53 AM,15.1,8.1,74,30.45,10.0,North,6.9,-,N/A,,Clear,350,2013-11-27 07:53:00
2:53 AM,15.1,8.1,74,30.45,10.0,North,3.5,-,N/A,,Clear,10,2013-11-27 08:53:00
3:53 AM,14.0,7.0,74,30.45,10.0,North,3.5,-,N/A,,Clear,10,2013-11-27 09:53:00
4:53 AM,14.0,6.1,71,30.45,10.0,North,3.5,-,N/A,,Clear,360,2013-11-27 10:53:00
5:53 AM,15.1,8.1,74,30.47,10.0,NNW,5.8,-,N/A,,Clear,330,2013-11-27 11:53:00
6:53 AM,12.0,6.1,77,30.48,10.0,Calm,Calm,-,N/A,,Clear,0,2013-11-27 12:53:00
7:53 AM,15.1,9.0,77,30.48,10.0,Calm,Calm,-,N/A,,Clear,0,2013-11-27 13:53:00
8:53 AM,18.0,9.0,68,30.47,10.0,Calm,Calm,-,N/A,,Clear,0,2013-11-27 14:53:00
9:53 AM,21.9,10.0,60,30.48,10.0,Variable,4.6,-,N/A,,Clear,0,2013-11-27 15:53:00
10:53 AM,24.1,10.0,55,30.46,10.0,Calm,Calm,-,N/A,,Clear,0,2013-11-27 16:53:00
11:53 AM,26.1,10.0,51,30.42,10.0,Calm,Calm,-,N/A,,Clear,0,2013-11-27 17:53:00
12:53 PM,28.0,9.0,45,30.38,10.0,Calm,Calm,-,N/A,,Clear,0,2013-11-27 18:53:00
1:53 PM,30.0,10.9,45,30.34,10.0,South,5.8,-,N/A,,Clear,190,2013-11-27 19:53:00
2:53 PM,30.9,10.0,42,30.31,10.0,SW,10.4,-,N/A,,Clear,220,2013-11-27 20:53:00
3:53 PM,32.0,10.9,42,30.29,10.0,South,11.5,-,N/A,,Clear,190,2013-11-27 21:53:00
4:53 PM,30.0,12.0,47,30.27,10.0,South,8.1,-,N/A,,Clear,180,2013-11-27 22:53:00
5:53 PM,28.0,12.9,53,30.25,10.0,South,10.4,-,N/A,,Clear,170,2013-11-27 23:53:00
6:53 PM,28.9,12.0,49,30.23,10.0,South,12.7,-,N/A,,Clear,170,2013-11-28 00:53:00
7:53 PM,28.9,12.0,49,30.20,10.0,South,10.4,-,N/A,,Clear,170,2013-11-28 01:53:00
8:53 PM,30.0,12.9,49,30.18,10.0,South,11.5,-,N/A,,Clear,190,2013-11-28 02:53:00
9:53 PM,30.0,12.9,49,30.19,10.0,SSW,12.7,-,N/A,,Clear,210,2013-11-28 03:53:00
10:53 PM,28.9,14.0,54,30.18,10.0,SSW,9.2,-,N/A,,Clear,200,2013-11-28 04:53:00
11:53 PM,28.9,14.0,54,30.16,10.0,SSW,10.4,-,N/A,,Clear,200,2013-11-28 05:53:00